Weather History for Warrensburg, MO

Change the Weather History Date:

Friday, February 21, 2014

  Actual Average (KSZL) Record (KSZL)
Temperature  
Mean Temperature - -  
Max Temperature - 44 °F 64 °F (2000)
Min Temperature - 28 °F 15 °F (2006)
Moisture  
Dew Point -    
Average Humidity    
Maximum Humidity    
Minimum Humidity    
Precipitation  
Precipitation 0.00 in - - ()
Sea Level Pressure  
Sea Level Pressure 29.88 in    
Wind  
Wind Speed 14 mph (SW)    
Max Wind Speed 29 mph    
Max Gust Speed 37 mph    
Visibility 10 miles    
Events      
Averages and records for this station are not official NWS values.
T = Trace of Precipitation, MM = Missing Value Source: NWS Daily Summary

Daily Weather History Graph

Daily Weather History Graph

Search for Another Location

Airport:

Trip Planner

Search our weather history database for the weather conditions in past years. The results will help you decide how hot, cold, wet, or windy it might be!

Date:

Astronomy

Feb. 21, 2014 Rise Set
Actual Time 6:58 AM CST 5:59 PM CST
Civil Twilight 6:31 AM CST 6:26 PM CST
Nautical Twilight 6:00 AM CST 6:57 PM CST
Astronomical Twilight 5:29 AM CST 7:28 PM CST
Moon No Moon Rise 10:27 AM CST (2/21)
Length of Visible Light 11h 54m
Length of Day
11h 00m
Waning Gibbous, 60% of the Moon is Illuminated
Feb 21
Waning Gibbous
Feb 22
Last Quarter
Mar 1
New
Mar 8
First Quarter
Mar 16
Full

Hourly Weather History & Observations

Time (CST) Temp. Dew Point Humidity Pressure Visibility Wind Dir Wind Speed Gust Speed Precip Events Conditions
12:15 AM - - N/A% 29.80 in 10.0 mi West 19.6 mph 25.3 mph N/A   Clear
12:35 AM - - N/A% 29.81 in 10.0 mi West 17.3 mph 24.2 mph N/A   Clear
12:55 AM - - N/A% 29.82 in 10.0 mi West 18.4 mph 28.8 mph N/A   Clear
1:15 AM - - N/A% 29.83 in 10.0 mi West 24.2 mph 31.1 mph N/A   Clear
1:35 AM - - N/A% 29.84 in 10.0 mi West 15.0 mph 25.3 mph N/A   Clear
1:55 AM - - N/A% 29.85 in 10.0 mi West 18.4 mph 25.3 mph N/A   Clear
2:15 AM - - N/A% 29.86 in 10.0 mi West 16.1 mph 25.3 mph N/A   Clear
2:35 AM - - N/A% 29.87 in 10.0 mi West 13.8 mph 20.7 mph N/A   Clear
2:55 AM - - N/A% 29.87 in 10.0 mi West 12.7 mph 21.9 mph N/A   Clear
3:15 AM - - N/A% 29.88 in 10.0 mi West 12.7 mph 18.4 mph N/A   Clear
3:35 AM - - N/A% 29.87 in 10.0 mi West 10.4 mph 17.3 mph N/A   Clear
3:55 AM - - N/A% 29.89 in 10.0 mi SW 10.4 mph - N/A   Clear
4:15 AM - - N/A% 29.90 in 10.0 mi SW 8.1 mph - N/A   Clear
4:35 AM - - N/A% 29.91 in 10.0 mi SW 11.5 mph - N/A   Clear
4:55 AM - - N/A% 29.92 in 10.0 mi SW 12.7 mph - N/A   Clear
5:15 AM - - N/A% 29.92 in 10.0 mi SW 9.2 mph - N/A   Clear
5:35 AM - - N/A% 29.92 in 10.0 mi SW 6.9 mph - N/A   Clear
5:55 AM - - N/A% 29.92 in 10.0 mi SW 8.1 mph - N/A   Clear
6:15 AM - - N/A% 29.93 in 10.0 mi SSW 9.2 mph - N/A   Clear
6:35 AM - - N/A% 29.92 in 10.0 mi SW 10.4 mph - N/A   Clear
6:55 AM - - N/A% 29.93 in 10.0 mi SW 9.2 mph - N/A   Clear
7:15 AM - - N/A% 29.93 in 10.0 mi SW 8.1 mph - N/A   Clear
7:35 AM - - N/A% 29.94 in 10.0 mi SW 8.1 mph - N/A   Clear
7:55 AM - - N/A% 29.95 in 10.0 mi SW 6.9 mph - N/A   Clear
8:15 AM - - N/A% 29.95 in 10.0 mi SW 10.4 mph - N/A   Clear
8:35 AM - - N/A% 29.95 in 10.0 mi SW 9.2 mph - N/A   Clear
8:55 AM - - N/A% 29.95 in 10.0 mi WSW 8.1 mph - N/A   Clear
9:15 AM - - N/A% 29.94 in 10.0 mi SW 9.2 mph - N/A   Clear
9:35 AM - - N/A% 29.93 in 10.0 mi SW 9.2 mph - N/A   Clear
9:55 AM - - N/A% 29.93 in 10.0 mi SSW 11.5 mph - N/A   Clear
10:15 AM - - N/A% 29.93 in 10.0 mi SSW 13.8 mph - N/A   Clear
10:35 AM - - N/A% 29.93 in 10.0 mi SSW 15.0 mph 18.4 mph N/A   Clear
10:55 AM - - N/A% 29.93 in 10.0 mi South 11.5 mph 19.6 mph N/A   Clear
11:15 AM - - N/A% 29.92 in 10.0 mi South 12.7 mph - N/A   Clear
11:35 AM - - N/A% 29.90 in 10.0 mi SSW 18.4 mph 23.0 mph N/A   Clear
11:55 AM - - N/A% 29.89 in 10.0 mi SSW 19.6 mph 25.3 mph N/A   Clear
12:15 PM - - N/A% 29.87 in 10.0 mi SSW 20.7 mph 27.6 mph N/A   Clear
12:35 PM - - N/A% 29.85 in 10.0 mi SSW 16.1 mph 26.5 mph N/A   Clear
12:55 PM - - N/A% 29.83 in 10.0 mi SSW 16.1 mph 24.2 mph N/A   Clear
1:15 PM - - N/A% 29.82 in 10.0 mi SSW 24.2 mph 28.8 mph N/A   Clear
1:35 PM - - N/A% 29.82 in 10.0 mi SSW 19.6 mph 33.4 mph N/A   Clear
1:55 PM - - N/A% 29.81 in 10.0 mi SSW 28.8 mph 36.8 mph N/A   Clear
2:15 PM - - N/A% 29.81 in 10.0 mi SW 26.5 mph 35.7 mph N/A   Clear
2:35 PM - - N/A% 29.81 in 10.0 mi SW 27.6 mph 36.8 mph N/A   Clear
2:55 PM - - N/A% 29.80 in 10.0 mi SW 18.4 mph 32.2 mph N/A   Clear
3:15 PM - - N/A% 29.80 in 10.0 mi SW 25.3 mph 34.5 mph N/A   Clear
3:35 PM - - N/A% 29.80 in 10.0 mi SW 24.2 mph 35.7 mph N/A   Clear
4:15 PM - - N/A% 29.81 in 10.0 mi SW 24.2 mph 34.5 mph N/A   Clear
4:35 PM - - N/A% 29.81 in 10.0 mi SW 23.0 mph 28.8 mph N/A   Clear
4:55 PM - - N/A% 29.81 in 10.0 mi SW 23.0 mph 29.9 mph N/A   Clear
5:15 PM - - N/A% 29.82 in 10.0 mi SW 16.1 mph 25.3 mph N/A   Scattered Clouds
5:35 PM - - N/A% 29.83 in 10.0 mi SW 12.7 mph - N/A   Mostly Cloudy
5:55 PM - - N/A% 29.83 in 10.0 mi SW 10.4 mph - N/A   Mostly Cloudy
6:15 PM - - N/A% 29.84 in 10.0 mi SW 8.1 mph - N/A   Scattered Clouds
6:35 PM - - N/A% 29.85 in 10.0 mi WSW 11.5 mph - N/A   Clear
6:55 PM - - N/A% 29.87 in 10.0 mi West 5.8 mph - N/A   Scattered Clouds
7:15 PM - - N/A% 29.88 in 10.0 mi West 6.9 mph - N/A   Scattered Clouds
7:35 PM - - N/A% 29.88 in 10.0 mi WSW 5.8 mph - N/A   Scattered Clouds
7:55 PM - - N/A% 29.89 in 10.0 mi SW 8.1 mph - N/A   Clear
8:15 PM - - N/A% 29.90 in 10.0 mi SW 5.8 mph - N/A   Clear
8:35 PM - - N/A% 29.90 in 10.0 mi WSW 5.8 mph - N/A   Clear
8:55 PM - - N/A% 29.91 in 10.0 mi WSW 8.1 mph - N/A   Clear
9:15 PM - - N/A% 29.92 in 10.0 mi SW 6.9 mph - N/A   Clear
9:35 PM - - N/A% 29.92 in 10.0 mi SW 5.8 mph - N/A   Clear
9:55 PM - - N/A% 29.92 in 10.0 mi SW 5.8 mph - N/A   Clear
10:15 PM - - N/A% 29.92 in 10.0 mi WSW 5.8 mph - N/A   Clear
10:35 PM - - N/A% 29.92 in 10.0 mi SSW 4.6 mph - N/A   Clear
10:55 PM - - N/A% 29.92 in 10.0 mi SSW 3.5 mph - N/A   Clear
11:15 PM - - N/A% 29.91 in 10.0 mi SSE 4.6 mph - N/A   Scattered Clouds
11:35 PM - - N/A% 29.91 in 10.0 mi South 5.8 mph - N/A   Mostly Cloudy
11:55 PM - - N/A% 29.92 in 10.0 mi South 4.6 mph - N/A   Mostly Cloudy